User: anonymous   Login
Location: Unspecified
(0.0000°N, 0.0000°E)
Time: 23:52:06
(UTC+00:00)
Language:

Kiku-1 - Orbit

View from above orbital plane
View from above orbital plane
View from above satellite
View from above satellite

Ground track
Ground track

The orbit data is extracted from the following two-line orbital elements,

1 08197U 75082A   18115.01347313 -.00000110  00000-0  21125-4 0  9993
2 08197  46.9888 300.9044 0085661   1.3821 137.3848 13.59508272117848
Epoch (UTC): 25 April 2018 00:19:24
Eccentricity: 0.0085661
inclination: 46.9888°
perigee height: 974 km
apogee height: 1101 km
right ascension of ascending node: 300.9044°
argument of perigee: 1.3821°
revolutions per day: 13.59508272
mean anomaly at epoch: 137.3848°
orbit number at epoch: 11784

The dashed part of the orbit path shows where the satellite is in the earth's shadow,  

DLR